Weather History for Grand Canyon, AZ

Change the Weather History Date:

Tuesday, February 5, 2013

  Actual Average Record
Temperature  
Mean Temperature 37 °F -  
Max Temperature 55 °F 42 °F 60 °F (2009)
Min Temperature 19 °F 14 °F -16 °F (2008)
Degree Days  
Heating Degree Days 28    
Moisture  
Dew Point 18 °F    
Average Humidity 58    
Maximum Humidity 85    
Minimum Humidity 24    
Precipitation  
Precipitation 0.00 in - - ()
Sea Level Pressure  
Sea Level Pressure 30.06 in    
Wind  
Wind Speed 2 mph (South)    
Max Wind Speed 9 mph    
Max Gust Speed -    
Visibility 10 miles    
Events      
Averages and records for this station are not official NWS values.
T = Trace of Precipitation, MM = Missing Value Source: NWS Daily Summary

Daily Weather History Graph

Daily Weather History Graph

Search for Another Location

Airport:

Trip Planner

Search our weather history database for the weather conditions in past years. The results will help you decide how hot, cold, wet, or windy it might be!

Date:

Astronomy

Feb. 05, 2013 Rise Set
Actual Time 7:25 AM MST 6:00 PM MST
Civil Twilight 6:58 AM MST 6:26 PM MST
Nautical Twilight 6:28 AM MST 6:57 PM MST
Astronomical Twilight 5:58 AM MST 7:27 PM MST
Moon 3:07 AM MST (2/5) 1:24 PM MST (2/5)
Length of Visible Light 11h 28m
Length of Day
10h 34m
Waning Crescent, 26% of the Moon is Illuminated
Feb 5
Waning Crescent
Feb 10
New
Feb 17
First Quarter
Feb 25
Full
Mar 4
Last Quarter

Hourly Weather History & Observations

Time (MST) Temp. Windchill Dew Point Humidity Pressure Visibility Wind Dir Wind Speed Gust Speed Precip Events Conditions
12:54 AM 23.0 °F - 19.0 °F 85% 30.10 in 10.0 mi Calm Calm - N/A   Clear
1:54 AM 23.0 °F - 18.0 °F 81% 30.08 in 10.0 mi Calm Calm - N/A   Clear
2:54 AM 21.9 °F - 17.1 °F 82% 30.08 in 10.0 mi Calm Calm - N/A   Clear
3:54 AM 21.0 °F - 17.1 °F 85% 30.07 in 10.0 mi Calm Calm - N/A   Clear
4:54 AM 19.9 °F - 16.0 °F 85% 30.08 in 10.0 mi Calm Calm - N/A   Clear
5:54 AM 19.9 °F - 16.0 °F 85% 30.12 in 10.0 mi Calm Calm - N/A   Clear
7:54 AM 21.0 °F 16.2 °F 16.0 °F 81% 30.19 in 10.0 mi ENE 3.5 mph - N/A   Clear
8:54 AM 32.0 °F - 21.0 °F 64% 30.15 in 10.0 mi Calm Calm - N/A   Clear
9:54 AM 46.0 °F 43.1 °F 14.0 °F 28% 30.10 in 10.0 mi East 5.8 mph - N/A   Clear
10:54 AM 50.0 °F - 16.0 °F 26% 30.09 in 10.0 mi SSE 5.8 mph - N/A   Clear
11:54 AM 51.1 °F - 19.0 °F 28% 30.08 in 10.0 mi SSW 5.8 mph - N/A   Clear
12:54 PM 53.1 °F - 18.0 °F 25% 30.04 in 10.0 mi SW 5.8 mph - N/A   Clear
1:54 PM 55.0 °F - 19.9 °F 25% 30.00 in 10.0 mi WSW 6.9 mph - N/A   Clear
2:54 PM 54.0 °F - 19.0 °F 25% 29.99 in 10.0 mi Variable 3.5 mph - N/A   Clear
3:54 PM 54.0 °F - 19.9 °F 26% 29.98 in 10.0 mi SSW 9.2 mph - N/A   Clear
4:54 PM 54.0 °F - 18.0 °F 24% 29.99 in 10.0 mi WSW 6.9 mph - N/A   Clear
5:54 PM 44.1 °F - 19.9 °F 38% 30.03 in 10.0 mi Calm Calm - N/A   Clear
6:54 PM 33.1 °F - 21.9 °F 64% 30.07 in 10.0 mi Calm Calm - N/A   Clear
8:54 PM 28.0 °F - 19.9 °F 72% 30.04 in 10.0 mi Calm Calm - N/A   Clear
9:54 PM 26.1 °F - 19.9 °F 78% 30.00 in 10.0 mi Calm Calm - N/A   Clear
10:54 PM 25.0 °F - 19.9 °F 81% 29.97 in 10.0 mi Calm Calm - N/A   Clear
11:54 PM 25.0 °F - 19.9 °F 81% 29.97 in 10.0 mi Calm Calm - N/A   Clear